Location: Fontevrault
(47.1823°N, 0.0493°E)
Time: 10:13:08
(UTC+00:00)

CZ-4B DEB - Pass Details

Date: 16 June 2021
Orbit: 404 x 407 km, 97.3° (Epoch: 03 August)

Event Time Altitude Azimuth Distance (km) Brightness Sun altitude
Exits shadow 22:07:00 29° 188° (S) 781 5.1 -14.9°
Maximum altitude 22:08:24 61° 259° (W) 468 4.5 -15.0°
Drops below altitude 10° 22:11:31 10° 341° (NNW) 1,475 8.4 -15.3°
Sets 22:13:32 0° 345° (NNW) 2,342 9.8 -15.4°
